Regional Weather Roundup
Issued by NWS

Home | Current Version | Previous Version | Graphics & Text | Print | Product List | Glossary On
Versions: 1 2 3 4 5 6 7 8 9 10 11 12 13 14 15 16 17 18 19 20 21 22 23 24 25 26 27 28 29 30 31 32 33 34 35 36 37 38 39 40 41 42 43 44 45 46 47 48 49 50
000
ASUS45 KBOU 061107
RWRCO

WEATHER ROUNDUP FOR COLORADO
NATIONAL WEATHER SERVICE DENVER/BOULDER CO
400 AM MST SAT FEB 06 2016

NOTE: "FAIR" INDICATES FEW OR NO CLOUDS BELOW 12000 FEET WITH NO
SIGNIFICANT WEATHER AND/OR OBSTRUCTIONS TO VISIBILITY.

COZ001>005-013-030-031-061200-
...NORTHWEST COLORADO...

CITY           SKY/WX    TMP DP  RH WIND       PRES   REMARKS
CRAIG          CLOUDY   -10 -16  74 CALM      30.48F
HAYDEN         CLOUDY     7   1  78 SE13      30.45S WCI  -9
MEEKER         CLOUDY     0  -4  83 CALM      30.48F
MOUNT WERNER   NOT AVBL
STEAMBOAT SPGS CLOUDY     6   2  87 CALM      30.46S
WALDEN         CLOUDY    10   3  72 S17       30.39S WCI  -7
$$

COZ006>008-011-061200-
...WEST CENTRAL VALLEYS...

CITY           SKY/WX    TMP DP  RH WIND       PRES   REMARKS
GRAND JUNCTION CLOUDY     4   2  91 NE6       30.57F FOG     WCI  -7
MONTROSE       CLOUDY     5  -1  76 S9        30.56F WCI  -9
EAGLE          CLOUDY     0  -2  92 CALM      30.58R
RIFLE          CLOUDY     2  -3  80 E3        30.57F
DELTA          CLOUDY    12   8  81 CALM      30.58S
NUCLA          CLOUDY    10   3  72 CALM      30.55S
$$

COZ017>023-064>068-061200-
...SOUTHWEST COLORADO...

CITY           SKY/WX    TMP DP  RH WIND       PRES   REMARKS
DURANGO        CLOUDY    -2  -6  83 NE5       30.44F WCI -12
CORTEZ         CLOUDY     4   0  83 NE8       30.48F WCI  -9
PAGOSA SPRINGS CLOUDY     1  -3  85 CALM      30.41F
TELLURIDE      CLOUDY    10   3  72 SE6       30.43S WCI   1
WOLF CREEK PAS CLOUDY    18   1  49 NW9       30.38F WCI   6
$$

COZ009-010-012-014-032>034-037-058>063-061200-
...CENTRAL COLORADO...

CITY           SKY/WX    TMP DP  RH WIND       PRES   REMARKS
ASPEN          CLOUDY    -1  -6  79 S6        30.45R WCI -13
BUENA VISTA    CLOUDY     2  -6  68 SW3       30.34S
COPPER MTN     CLOUDY    12   5  73 W13       30.33S WCI  -3
BERTHOUD PASS  CLOUDY     3  -8  60 N18G35    30.27R WCI -17
COTTONWOOD PAS CLOUDY    23   5  46 NW8G18    30.29S WCI  14
GUNNISON       CLOUDY   -18 N/A N/A CALM      30.55S
KREMMLING      CLOUDY   N/A N/A N/A CALM      30.52S
LEADVILLE      CLOUDY     5  -1  76 NE8       30.34S WCI  -8
MONARCH PASS   CLOUDY     3   0  85 MISG      30.37F
SALIDA         NOT AVBL
SUNLIGHT       CLOUDY    12   9  85 CALM        N/A
WILKERSON PASS CLOUDY    19   3  49 NW15G24   30.26S WCI   5
$$

COZ069>075-061200-
...SAN LUIS VALLEY/SANGRE DE CRISTO MOUNTAINS...

CITY           SKY/WX    TMP DP  RH WIND       PRES   REMARKS
ALAMOSA        NOT AVBL
LA VETA PASS   CLOUDY     7   0  72 MISG      30.25S
SAGUACHE       CLOUDY    12   1  62 N8        30.41R WCI   1
$$

COZ035-036-038>040-061200-
...NORTHERN COLORADO FRONT RANGE...

CITY           SKY/WX    TMP DP  RH WIND       PRES   REMARKS
DENVER INTL AP CLOUDY    23   6  48 S13       30.20F WCI  11
DMNS CITY PARK   N/A     23   5  45 SE9       30.21S WCI  13
AURORA         CLEAR     21   5  50 S9        30.21F WCI  10
FRONT RANGE AP NOT AVBL
ERIE MUNI ARPT CLOUDY     8   6  88 CALM      30.22S
BOULDER MUN AP CLOUDY    21  10  63 CALM      30.21S
CENTENNIAL     CLOUDY    21   4  47 S6        30.21F WCI  13
BROOMFIELD     CLOUDY    23   9  54 CALM      30.21S
FORT COLLINS   CLOUDY    10   9  92 CALM      30.22S
LONGMONT       CLOUDY     7   1  76 CALM      30.24S
$$

COZ041-046-047-076>085-087-088-061200-
...PIKES PEAK/PALMER DIVIDE AND SOUTHERN FOOTHILLS...

CITY           SKY/WX    TMP DP  RH WIND       PRES   REMARKS
COLO. SPRINGS  CLEAR     16   0  49 N9        30.24F WCI   4
A. F. ACADEMY  CLOUDY     8  -3  61 N10       30.23R WCI  -6
SCHRIEVER AFB  FAIR      21   1  41 NW5       30.24F WCI  14
ELLICOTT       NOT AVBL
FALCON         CLEAR     15   1  53 NW9       30.22F WCI   3
FORT CARSON    CLOUDY    13   4  68 NW14      30.22F WCI  -2
LIMON          CLOUDY     3  -2  79 N5        30.25S WCI  -6
MONUMENT HILL  CLOUDY    12  -4  48 SW8       30.22F WCI   1
TRINIDAD       CLOUDY    14   7  73 W9        30.27F WCI   2
$$

COZ042>045-048>051-090-091-061200-
...NORTHEAST COLORADO...

CITY           SKY/WX    TMP DP  RH WIND       PRES   REMARKS
GREELEY ARPT   CLOUDY     1   0  92 NW3       30.24S
AKRON          CLOUDY    19   6  57 SW12      30.21F WCI   7
BURLINGTON     CLOUDY    17   7  64 SW14      30.25F WCI   3
WRAY           CLOUDY    10   5  79 W8        30.24F WCI  -2
STERLING       CLOUDY     7   3  85 S6        30.23F WCI  -3
HOLYOKE        CLOUDY    19  10  68 W13       30.21F WCI   7
FORT MORGAN    CLOUDY     5   0  79 W14       30.23F WCI -12
$$

COZ086-089-092>099-061200-
...SOUTHEAST COLORADO...

CITY           SKY/WX    TMP DP  RH WIND       PRES   REMARKS
PUEBLO         CLOUDY    13   6  74 CALM      30.28F
LA JUNTA       CLOUDY    13   9  84 W12       30.30F WCI  -1
LAMAR          CLOUDY    16  11  80 SW10      30.30F WCI   4
SPRINGFIELD      N/A     19  13  77 W7        30.29F WCI  10
$$



USA.gov is the U.S. government's official web portal to all federal, state and local government web resources and services.